Regional Weather Roundup
Issued by NWS Wilmington, NC

Home | Current Version | Previous Version | Text Only | Print | Product List | Glossary On
Versions: 1 2 3 4 5 6 7 8 9 10 11 12 13 14 15 16 17 18 19 20 21 22 23 24 25 26 27 28 29 30 31 32 33 34 35 36 37 38 39 40 41 42 43 44 45 46 47 48 49 50
983
ASUS42 KILM 251913
RWRILM
RWRILM
REGIONAL HOURLY WEATHER ROUNDUP
NATIONAL WEATHER SERVICE WILMINGTON NC
300 PM EDT WED MAY 25 2016

NOTE: "FAIR" INDICATES FEW OR NO CLOUDS BELOW 12,000 FEET WITH NO
SIGNIFICANT WEATHER AND/OR OBSTRUCTIONS TO VISIBILITY.

...............WFO WILMINGTON COUNTY WARNING AREA...............

......COASTAL NC AND SC COUNTIES......

CITY           SKY/WX    TMP DP  RH WIND       PRES   REMARKS
WILMINGTON     MOSUNNY   85  57  38 S10       30.19F
N MYRTLE BEACH SUNNY     80  70  71 S13       30.21F
MYRTLE BEACH   SUNNY     82  64  54 S14       30.23F

......INLAND NC AND SC COUNTIES.......

CITY           SKY/WX    TMP DP  RH WIND       PRES   REMARKS
LUMBERTON      PTSUNNY   88  56  33 SW9       30.19F
ELIZABETHTOWN  PTSUNNY   86  54  32 CALM      30.19F
WHITEVILLE     MOSUNNY   85  56  37 S3        30.20S
FLORENCE       MOSUNNY   87  55  33 S3        30.20F
DARLINGTON     MOSUNNY   86  57  37 S9        30.20F
KINGSTREE      FAIR      86  52  30 CALM      30.20F
HARTSVILLE     FAIR      84  55  37 SW5       30.20F
BENNETTSVILLE  FAIR      90  55  31 SE3       30.19F
CONWAY         PTSUNNY   86  55  35 S3        30.20S
GEORGETOWN     CLOUDY    81  64  57 SE9       30.22S
MARION         FAIR      84  54  34 CALM      30.20F

....................REST OF NORTH CAROLINA......................

.........EASTERN NC.........

CITY           SKY/WX    TMP DP  RH WIND       PRES   REMARKS
CAPE HATTERAS  SUNNY     77  67  71 SW7       30.22S
JACKSONVILLE   MOSUNNY   85  55  35 SE6       30.19F
MOREHEAD CITY  SUNNY     79  68  69 SW12      30.21F
KENANSVILLE    MOSUNNY   86  52  30 SW6       30.20F
NEW BERN       SUNNY     86  55  34 CALM      30.20F
ELIZABETH CITY MOSUNNY   85  59  41 S12G18    30.17S

.........CENTRAL NC.........

CITY           SKY/WX    TMP DP  RH WIND       PRES   REMARKS
RALEIGH DURHAM MOSUNNY   87  58  37 W12       30.18F
ROCKY MOUNT    MOSUNNY   86  56  35 VRB5      30.17F
ROANOKE RAPIDS NOT AVBL
FAYETTEVILLE   MOSUNNY   88  53  30 S10G17    30.18F
HOFFMAN        MOSUNNY   85  53  33 SW5       30.18F

.........WESTERN NC.........

CITY           SKY/WX    TMP DP  RH WIND       PRES   REMARKS
CHARLOTTE      MOSUNNY   84  56  38 SW8       30.21F
GREENSBORO     PTSUNNY   85  49  28 W8        30.19F
HICKORY        NOT AVBL
BOONE          NOT AVBL
ASHEVILLE      NOT AVBL

.....................REST OF SOUTH CAROLINA.....................

.........EASTERN SC.........

CITY           SKY/WX    TMP DP  RH WIND       PRES   REMARKS
CHARLESTON     PTSUNNY   87  57  35 S8        30.21F
BEAUFORT MCAS  MOSUNNY   87  65  47 SE3       30.22F
HILTON HEAD    MOSUNNY   82  70  65 S12       30.24F

.........CENTRAL SC.........

CITY           SKY/WX    TMP DP  RH WIND       PRES   REMARKS
COLUMBIA       PTSUNNY   87  56  34 W3        30.20F
ORANGEBURG     PTSUNNY   85  53  33 S7        30.21F
SUMTER SHAW    SUNNY     85  55  35 VRB5      30.19F

.........WESTERN SC.........

CITY           SKY/WX    TMP DP  RH WIND       PRES   REMARKS
GREENVILLE     NOT AVBL
ROCK HILL      SUNNY     85  55  35 SW9       30.21F
ANDERSON       SUNNY     85  55  35 W10       30.22F
CLEMSON        NOT AVBL
GREENWOOD      MOSUNNY   86  52  30 VRB3      30.22F


...................COASTAL AND OFFSHORE REPORTS..................

................LOCAL PIERS AND NC RESERVE................


STATION/POSITION TIME  SKY/WX   TEMP    WIND        PRES    VSBY
                                AIR SEA DIR/SP/G
                 (UTC)          (F)     (DEG/KT/KT) (MB)    (MI)
JOHNY MRCER PIER 1800            74 75  170/ 15/ 17 1022.3F
NC RESRV MASNBRO NOT AVBL
OCEAN CREST PIER NOT AVBL
SPRINGMAID  PIER 1800            75 75  160/ 13/ 14 1023.0F


................COASTAL AND OFFSHORE BUOYS................


STATION/POSITION TIME  SKY/WX   TEMP    WIND        PRES    VSBY
                                AIR SEA DIR/SP/G
                 (UTC)          (F)     (DEG/KT/KT) (MB)    (MI)
DIMNDSHOAL 41025 1850            72 71  230/  8/ 10 1023.2F
WVE H/P(F/S)=  2/ 8 SWL H/P/D(F/S/D)=  2/140/ 8

CAPE LOOKOUT     1900            75     200/ 11/ 14 1022.9F
ONSLOW BAY 41036 NOT AVBL
ONSLOW BAY 41064 1808            75 74  210/  6/  8 1024.0F
ONSLOW BAY 41159 1825               74                N/A
WVE H/P(F/S)=  2/ 9

5SE WRITBC 41038 1808            74 73  200/ 12/ 16 1024.2F
MASNBO INL 41110 1806               73                N/A
WVE H/P(F/S)=  2/ 9

WILM HARBR 41108 1826               74                N/A
WVE H/P(F/S)=  1/ 9

27SE WRITB 41037 1808            75 74  240/  8/ 10 1023.1F
FRYING PAN 41013 1900            76 78  220/  8/ 10 1023.5F
SUNST NRSH 41024 1808            75 74  200/ 12/ 14 1023.2F
CAPRS NRSH 41029 1808            76 76  200/ 10/ 14 1023.7F
EDISTO     41004 1850            78 80  250/  2/  4 1023.8F
WVE H/P(F/S)=  2/ 8 SWL H/P/D(F/S/D)=  2/ 8



..........OFFSHORE BUOYS BEYOND 100 NM OFFSHORE...........
.....IN A TRIANGLE---HAT TO BERMUDA TO BAHAMAS TO HAT.....


STATION/POSITION TIME  SKY/WX   TEMP    WIND        PRES    VSBY
                                AIR SEA DIR/SP/G
                 (UTC)          (F)     (DEG/KT/KT) (MB)    (MI)
150E HAT   41001 NOT AVBL
W BERMUDA  41048 1850            73 76   30/ 10/ 12 1022.8F
WVE H/P(F/S)=  4/ 7 SWL H/P/D(F/S/D)=  3/300/ 7

ATLANTIC S 41049 1850            78 78  130/ 14/ 16 1021.7F
WVE H/P(F/S)=  5/ 6 SWL H/P/D(F/S/D)=  3/120/ 8

E BAHAMAS  41046 1800            80 81  230/  6/  8 1018.5S
NE BAHAMAS 41047 1900            78 80   50/ 12/ 14 1019.6F
120E CANVRL41010 1820            76 79   30/ 10/ 12 1023.7F

END




USA.gov is the U.S. government's official web portal to all federal, state and local government web resources and services.